Hourly Data Report for October 05, 2013

All times are specified in Local Standard Time (LST). Add 1 hour to adjust for Daylight Saving Time where and when it is observed.

RANKIN INLET A
NUNAVUT

62°48'38.000" N
92°06'53.000" W
32.30 m
2303405
71083
YRT

Download Data

Hourly Data (October 2013)
Hourly Data Report for October 5, 2013
Temp Definition
°C
Dew Point Temp Definition
°C
Rel Hum Definition
%
Wind Dir Definition
10's deg

Wind Spd Definition
km/h
Visibility Definition
km
Stn Press Definition
kPa
Hmdx Definition


Wind Chill Definition


Weather Definition


TIME
00:00 Legend Double Dagger -4.5 -8.6 73 34 3 24.1 102.25   -6 Snow Showers
01:00 Legend Double Dagger -4.7 -8.3 76 33 8 24.1 102.25   -8 Snow Showers
02:00 Legend Double Dagger -4.9 -7.8 80 36 5 24.1 102.24   -7 Snow Showers
03:00 Legend Double Dagger -5.4 -6.6 91 36 9 8.1 102.20   -9 Snow Showers
04:00 Legend Double Dagger -5.3 -7.0 88 36 9 24.1 102.13   -9 Snow Showers
05:00 Legend Double Dagger -5.1 -7.1 86 36 5 24.1 102.12   -7 Snow Showers
06:00 Legend Double Dagger -5.1 -6.6 89 1 7 24.1 102.08   -8 Snow Showers
07:00 Legend Double Dagger -5.0 -6.3 91 4 8 24.1 102.04   -9 Snow Showers
08:00 Legend Double Dagger -4.4 -6.3 87 17 1 24.1 101.96   -5 Snow Showers
09:00 Legend Double Dagger -3.3 -6.4 79 17 18 24.1 101.94   -9 Snow Showers
10:00 Legend Double Dagger -2.9 -6.6 76 17 22 24.1 101.90   -9 LegendNANA
11:00 Legend Double Dagger -2.3 -6.3 74 18 20 24.1 101.83   -8 LegendNANA
12:00 Legend Double Dagger -1.9 -6.1 73 17 23 24.1 101.78   -8 Cloudy
13:00 Legend Double Dagger -1.4 -6.0 71 17 26 24.1 101.71   -8 LegendNANA
14:00 Legend Double Dagger -0.9 -5.3 72 16 28 24.1 101.60   -7 LegendNANA
15:00 Legend Double Dagger -0.6 -4.7 74 17 24 24.1 101.55   -7 Cloudy
16:00 Legend Double Dagger 0.0 -4.1 74 18 26 24.1 101.48   -6 LegendNANA
17:00 Legend Double Dagger 0.4 -2.8 79 17 27 24.1 101.40     LegendNANA
18:00 Legend Double Dagger 0.6 -2.1 82 15 29 24.1 101.35     Cloudy
19:00 Legend Double Dagger 0.9 -2.3 79 16 37 24.1 101.28     LegendNANA
20:00 Legend Double Dagger 0.9 -2.3 79 15 42 24.1 101.23     LegendNANA
21:00 Legend Double Dagger 0.9 -2.5 78 16 45 24.1 101.19     Cloudy
22:00 Legend Double Dagger 1.2 -2.2 78 15 45 24.1 101.14     LegendNANA
23:00 Legend Double Dagger 1.2 -2.0 79 18 37 24.1 101.06     LegendNANA

Notes on Data Quality.

Legend

  • E = Estimated
  • M = Missing
  • NA = Not Available
  • ‡ = Partner data that is not subject to review by the National Climate Archives
Date modified: